KUIPER-00034

导读

KUIPER-00034是美国亚马逊“柯伊伯项目”星座的一颗宽带通信卫星,于2025年4月28日发射升空,部署于近地轨道。该项目计划部署超3000颗卫星,旨在为全球提供高速低延迟互联网接入,填补偏远地区网络覆盖空白,依托降低的发射成本与成熟的小型化技术,参与全球低轨卫星星座建设竞争,助力全球互联基础设施构建。

基本信息
目录编号:
63747
目录名称:
KUIPER-00034
国际标识:
2025-088Z
轨道中心:
EARTH
卫星名称:
KUIPER-00034
卫星全名:
KUIPER-00034
卫星状态:
在轨 (已飞行505 天)
发射日期:
2025-04-28 UTC
国别 :
美国 (US)
星等 :
--
该卫星已列入 空间交会检测服务 Space Conjunction Data Service (SCDS) ,当前飞行风险评估等级: 无高风险
轨道信息
数据来源 国际轨道数据 AOE轨道数据
星历时间 2026-09-15T22:18:25+0800
8小时前
查看轨道信息
2026-09-13T06:00:00+0800
3天前
查看轨道信息
半长轴 7007.589km 7007.669km
偏心率 0.0000631 0.0001346
轨道倾角 51.905° 51.903°
近地点辐角 84.256° 355.504°
升交点赤经 328.358° 340.203°
平近点角 275.847° 120.267°
近地点 629.009km 628.588km
远地点 629.895km 630.476km
周期 97.300分钟 97.302分钟
每日圈数 14.799595 14.799344
详细信息
使用方式:
暂无
2D轨道图
3D轨道图
轨道高度分析图
轨道倾角分析图
轨道综合分析图
查看轨道综合分析图
交会数据列表
事件ID 空间交会对象 最接近时刻(TCA) 交会距离 交会风险概率(CRP) 交会风险指数(CRI) 操作
CDM_260916-164003-112806-374721
2026-09-16T
16:40:05+0000
1.639 km
极远距离
4.212304E-6 低风险 0.47
CDM_260916-025706-101906-374723
2026-09-16T
02:57:32+0000
1.691 km
极远距离
2.380682E-6 低风险 0.43
CDM_260915-235303-367606-374721
2026-09-15T
23:53:49+0000
2.454 km
极远距离
1.13393E-6 低风险 0.36
CDM_260918-064306-374706-959221
2026-09-18T
06:43:27+0000
2.455 km
极远距离
3.274021E-7 极低风险 0.25
与全量物体交会距离演化趋势 订阅飞行安全评估服务
与全量物体交会风险概率演化趋势 订阅飞行安全评估服务